Regional Weather Roundup
Issued by NWS

Home | Current Version | Previous Version | Text Only | Print | Product List | Glossary Off
Versions: 1 2 3 4 5 6 7 8 9 10 11 12 13 14 15 16 17 18 19 20 21 22 23 24 25 26 27 28 29 30 31 32 33 34 35 36 37 38 39 40 41 42 43 44 45 46 47 48 49 50

000
ASUS43 KDMX 061307
RWRIA

WEATHER ROUNDUP FOR IOWA
NATIONAL WEATHER SERVICE DES MOINES IA
800 AM CDT MON JUL 06 2015

NOTE: "FAIR" INDICATES FEW OR NO CLOUDS BELOW 12,000 FEET WITH NO
SIGNIFICANT WEATHER AND/OR OBSTRUCTIONS TO VISIBILITY.

* - THESE STATIONS ARE NOT NWS STATIONS...THUS NOT UNDER NWS
QUALITY CONTROL.  THEY ALSO DO NOT REPORT WEATHER SUCH
AS PRECIPITATION OR FOG.

IAZ001>003-012>014-020>022-031>034-043>046-061400-
   NORTHWEST IOWA

CITY           SKY/WX    TMP DP  RH WIND       PRES   REMARKS
CARROLL *      SUNNY     72  70  94 S7        29.87R
CHEROKEE *     DRIZZLE   68  68 100 S3        29.83F
DENISON *      SUNNY     70  70 100 CALM      29.83R
LE MARS *      CLOUDY    72  72 100 S9        29.84F
ORANGE CITY *  CLOUDY    70  68  94 SW6       29.84F
SHELDON *      CLOUDY    70  70 100 W5        29.84R
STORM LAKE *   CLOUDY    68  68 100 W7        29.84F
$$

IAZ055>058-069>071-079>083-090>094-061400-
   SOUTHWEST IOWA

CITY           SKY/WX    TMP DP  RH WIND       PRES   REMARKS
ATLANTIC *     MOSUNNY   73  72  94 CALM      29.88R
AUDUBON *      LGT RAIN  72  68  88 CALM      29.89R
CLARINDA *     PTSUNNY   77  77 100 S5        29.89R
COUNCIL BLFS * CLOUDY    72  72 100 E5        29.85F
CRESTON *      PTSUNNY   75  72  88 SW7       29.89R
HARLAN  *      LGT RAIN  72  72 100 CALM      29.89S
RED OAK *      MOSUNNY   77  73  88 CALM      29.87S
SHENANDOAH *   SUNNY     79  72  78 CALM      29.87S HX  82
$$

IAZ047>049-059>061-072>074-084-061400-
   CENTRAL IOWA

CITY           SKY/WX    TMP DP  RH WIND       PRES   REMARKS
ANKENY *       HVY RAIN  72  70  94 VRB6G13   29.88R
CHARITON *     SUNNY     75  70  83 SW12      29.88R
GRINNELL*      RAIN      70  70 100 E3        29.92R
KNOXVILLE *    CLOUDY    73  70  88 W8        29.88R
PELLA *        CLOUDY    72  72 100 N3        29.91R
PERRY *        DRIZZLE   73  70  88 CALM      29.87F
$$

IAZ004>006-015-016-023>025-035-036-061400-
   NORTH CENTRAL IOWA

CITY           SKY/WX    TMP DP  RH WIND       PRES   REMARKS
ALGONA *       CLOUDY    70  68  94 NW3       29.81F
CLARION *      CLOUDY    70  68  94 SE14      29.86R
FOREST CITY *    N/A     68  68 100 E3        29.81F
IOWA FALLS *   RAIN      66  64  94 SE13G22   29.91F
$$

IAZ007>011-017>019-026>030-037>042-050>054-066-061400-
   NORTHEAST IOWA

CITY           SKY/WX    TMP DP  RH WIND       PRES   REMARKS
CHARLES CITY * LGT RAIN  72  72 100 S9        29.90R
DECORAH *        N/A    N/A N/A N/A MISG        N/A
MONTICELLO *   MOSUNNY   72  72 100 VRB7      29.90R FOG
OELWEIN *        N/A     72  68  88 W16G24    29.92R
$$

IAZ064-065-067-068-078-061400-
   EAST CENTRAL IOWA

CITY           SKY/WX    TMP DP  RH WIND       PRES   REMARKS
MT. PLEASANT * CLOUDY    75  70  83 S10       29.92R
MUSCATINE *    MOSUNNY   75  72  88 S9        29.91R
$$

IAZ062-063-075>077-085>089-095>099-061400-
   SOUTHEAST IOWA

CITY           SKY/WX    TMP DP  RH WIND       PRES   REMARKS
FAIRFIELD *    MOSUNNY   73  68  83 S7        29.91R
FORT MADISON * SUNNY     73  72  94 S7        29.93R
KEOKUK *       SUNNY     75  72  88 S12       29.92R
OSKALOOSA *    LGT RAIN  72  68  88 S3        29.90R
CENTERVILLE *  MOSUNNY   73  68  83 S10G17    29.92R
WASHINGTON *   MOSUNNY   72  70  94 S9        29.92R FOG
$$

ABBREVIATIONS USED IN REMARKS
   TC - TEMPERATURES IN CELSIUS
  WCI - WIND CHILL INDEX
   HX - HEAT INDEX
  VSB - VISIBILITY
$$



USA.gov is the U.S. government's official web portal to all federal, state and local government web resources and services.